User: anonymous   Login
Location: Plum
(40.5000°N, 79.7500°W)
Time: 06:27:01
(UTC-04:00)
Language:

MOZ.5/SAFIR/RUBIN 5/SL-8 - Orbit

View from above orbital plane
View from above orbital plane
View from above satellite
View from above satellite

Ground track
Ground track

The orbit data is extracted from the following two-line orbital elements,

1 28898U 05043G   17178.60391078 -.00000003 +00000-0 +85292-5 0  9990
2 28898 097.9279 327.8934 0020494 151.8386 208.3928 14.60184191244723
Epoch (UTC): 27 June 2017 14:29:37
Eccentricity: 0.0020494
inclination: 97.9279°
perigee height: 678 km
apogee height: 707 km
right ascension of ascending node: 327.8934°
argument of perigee: 151.8386°
revolutions per day: 14.60184191
mean anomaly at epoch: 208.3928°
orbit number at epoch: 24472

The dashed part of the orbit path shows where the satellite is in the earth's shadow,  

DLR